Regional Weather Roundup
Issued by NWS

Home | Current Version | Previous Version | Graphics & Text | Print | Product List | Glossary On
Versions: 1 2 3 4 5 6 7 8 9 10 11 12 13 14 15 16 17 18 19 20 21 22 23 24 25 26 27 28 29 30 31 32 33 34 35 36 37 38 39 40 41 42 43 44 45 46 47 48 49 50
000
ASUS45 KPSR 032110
RWRAZ

ARIZONA REGIONAL HOURLY WEATHER ROUNDUP
NATIONAL WEATHER SERVICE PHOENIX AZ
200 PM MST TUE MAR 03 2015

NOTE: FAIR INDICATES FEW OR NO CLOUDS BELOW 12,000 FEET WITH NO
SIGNIFICANT WEATHER AND/OR OBSTRUCTIONS TO VISIBILITY.

AZZ001>003-036-032200-
NORTHWEST ARIZONA

CITY           SKY/WX    TMP DP  RH WIND       PRES   REMARKS
BULLHEAD CITY  FAIR      61  39  44 S8        29.91F
KINGMAN        FAIR      49  32  52 W7        29.89F
$$

AZZ004>008-015-016-018-032200-
NORTH CENTRAL ARIZONA

CITY           SKY/WX    TMP DP  RH WIND       PRES   REMARKS
GRAND CANYON   FLURRIES  32  26  78 SW16      29.86F WCI  21
PRESCOTT       PTSUNNY   45  27  49 SW10      29.89F
FLAGSTAFF      CLOUDY    32  27  80 S12       29.86  WCI  23
PAYSON         PTSUNNY   46  34  61 S13G21    29.89F
PAGE           FAIR      48  29  47 W8        29.82F
$$

AZZ009>014-017-032200-
NORTHEAST ARIZONA

CITY           SKY/WX    TMP DP  RH WIND       PRES   REMARKS
WINSLOW        PTSUNNY   50  25  37 W16G26    29.85F
SAINT JOHNS    FAIR      47  22  37 W15G21    29.83F
WINDOW ROCK    CLOUDY    41  25  53 W17G24    29.83F
SHOW LOW       FAIR      39  25  56 S13G22    29.89F WCI  32
$$

AZZ023-032200-
GREATER PHOENIX AREA

CITY           SKY/WX    TMP DP  RH WIND       PRES   REMARKS
PHOENIX        PTSUNNY   62  38  40 CALM      29.86F
BUCKEYE        FAIR      61  45  55 S3        29.89F
GLENDALE       PTSUNNY   63  39  42 MISG      29.89F
LUKE AFB       MOSUNNY   62  43  50 VRB3      29.86F
DEER VALLEY    PTSUNNY   61  39  44 S5        29.86F
SCOTTSDALE     PTSUNNY   63  38  39 S7        29.88F
MESA-FALCON    PTSUNNY   59  37  44 W8        29.87F
MESA-GATEWAY   MOSUNNY   59  41  51 CALM      29.89F
CHANDLER       PTSUNNY   63  41  45 S8        29.88F
$$

AZZ027-028-032200-
SOUTHWEST MARICOPA COUNTY AND PINAL COUNTY

CITY           SKY/WX    TMP DP  RH WIND       PRES   REMARKS
CASA GRANDE    FAIR      61  39  44 CALM      29.88F
GILA BEND      SUNNY     63  41  44 E5        29.87F
$$

AZZ503-504-507>509-032200-
SOUTHEAST ARIZONA

CITY           SKY/WX    TMP DP  RH WIND       PRES   REMARKS
TUCSON         FAIR      61  35  37 W7        29.88F
DAVIS-MONTHAN  FAIR      59  35  41 VRB5      29.86F
RYAN FIELD       N/A     61  39  44 W10       29.89F
NOGALES        FAIR      62  28  27 S13       29.87F
SIERRA VISTA   MOSUNNY   59  21  23 W9        29.86F
DOUGLAS        FAIR      59  40  49 S13G21    29.85F
SAFFORD        FAIR      61  33  35 NW8       29.85F
$$

AZZ020-021-025-026-031-032200-
SOUTHWEST ARIZONA

CITY           SKY/WX    TMP DP  RH WIND       PRES   REMARKS
YUMA           PTSUNNY   67  39  35 NW8       29.89F
$$

CAZ031-033-041-043-047-048-061-032200-
SOUTHERN CALIFORNIA

CITY           SKY/WX    TMP DP  RH WIND       PRES   REMARKS
DOWNTOWN L.A.  FAIR      65  37  35 VRB3      29.91F
L.A. AIRPORT   FAIR      61  43  51 W13       29.93F
SAN DIEGO      FAIR      63  43  48 SW13      29.93F
BURBANK        FAIR      64  36  35 CALM      29.90F
ONTARIO        FAIR      61  36  39 CALM      29.91F
RIVERSIDE      FAIR      63  35  35 S5        29.90F
PALM SPRINGS   FAIR      66  36  32 CALM      29.91F
EL CENTRO NAS  FAIR      65  38  36 NW6       29.90F
IMPERIAL       FAIR      64  41  42 MISG      29.90F
BLYTHE         FAIR      62  41  46 NE3       29.90F
$$

NVZ020-UTZ003-032200-
SOUTHERN NEVADA-UTAH

CITY           SKY/WX    TMP DP  RH WIND       PRES   REMARKS
LAS VEGAS      LGT RAIN  56  33  42 SW6       29.84F
SALT LAKE CITY PTSUNNY   36  25  64 N13       29.89R WCI  27
$$

NMZ009-TXZ055-032200-
NEW MEXICO-WEST TEXAS

CITY           SKY/WX    TMP DP  RH WIND       PRES   REMARKS
ALBUQUERQUE    PTSUNNY   50  28  42 VRB5      29.80F
EL PASO        PTSUNNY   59  47  64 W10       29.86F
$$


........................KEY........................
SKY/WX - SKY CONDITION/WEATHER
TMP    - TEMPERATURE IN FAHRENHEIT
DP     - DEW POINT IN FAHRENHEIT
RH     - RELATIVE HUMIDITY IN PERCENT
WIND   - DIRECTION AND SPEED IN MILES PER HOUR (MPH)
VRB    - VARIABLE WIND DIRECTION
PRES   - MEAN SEA LEVEL PRESSURE IN INCHES OF MERCURY
         F - FALLING PRESSURE   R - RISING PRESSURE
         S - STEADY PRESSURE
VSB    - VISIBILITY IN MILES
HX     - HEAT INDEX IN FAHRENHEIT
WCI    - WIND CHILL INDEX IN FAHRENHEIT
TC     - TEMPERATURE IN CELSIUS WHICH IS ALSO KNOWN AS
         TEMPERATURE IN CENTIGRADE
AFB    - AIR FORCE BASE
         LUKE AFB IS LUKE AIR FORCE BASE
         DAVIS-MONTHAN IS DAVIS-MONTHAN AIR FORCE BASE
NAS    - NAVAL AIR STATION
         EL CENTRO NAS IS EL CENTRO NAVAL AIR STATION
N/A    - NOT AVAILABLE



USA.gov is the U.S. government's official web portal to all federal, state and local government web resources and services.